Vorticity
6 9 4 9 3 -4 4 2 5 2 9 9 12 12 9 13 -1 3 8 13 3 8 13 7 7 9 6 11 2 5 3 8 6 4 9 5 5 7 7 6 8 2 4 4 6 5 4 6 5
3 1 -6 41 19 9 3 4 12 12 12 21 11 7 9 14 9 8 -1 4 8 8 16 7 5 13 18 17 -2 8 2 6 14 3 10 4 7 5 7 5 6 2 3 5 6 4 6 6 4
1 7 29 31 1 -3 8 3 1 9 13 11 9 7 10 9 17 10 7 8 10 2 13 13 11 6 15 6 7 -7 3 2 6 3 1 5 6 6 5 7 2 4 6 4 6 5 7 4 5
1 -7 30 -27 6 -8 3 8 9 7 6 8 8 8 10 10 10 15 15 11 11 5 7 11 7 8 -4 2 20 7 2 12 12 3 21 6 5 6 4 5 2 6 5 7 4 8 6 7 7
0 8 12 4 24 -22 3 10 8 7 10 9 3 9 8 8 3 8 10 4 16 9 5 7 8 11 11 9 12 6 7 6 14 1 7 6 4 8 5 1 5 6 5 6 7 8 7 7 7
6 -12 -31 13 16 5 -3 3 6 5 11 8 8 9 10 14 10 10 12 9 9 8 6 1 8 12 5 18 4 6 13 13 10 21 4 6 6 4 6 2 5 5 6 6 8 7 6 6 6
15 -17 23 5 22 4 17 6 7 7 6 10 5 9 7 5 7 5 15 6 6 7 4 1 6 18 12 4 4 6 9 14 10 6 5 4 3 4 4 5 6 6 5 6 8 6 6 6 7
4 36 2 12 18 8 5 16 6 10 4 8 16 2 7 6 8 13 15 10 4 9 10 9 12 13 -3 -1 8 6 14 1 6 9 6 14 7 7 2 5 6 5 6 5 6 5 6 6 4
-12 3 -0 7 7 18 3 5 8 10 5 8 12 7 6 7 8 12 12 12 11 21 16 28 20 9 11 5 2 6 16 8 4 6 7 5 4 7 4 5 5 6 6 6 5 4 3 4 5
-1 11 -2 4 10 71 0 10 3 1 17 7 4 6 9 8 7 10 9 8 5 2 8 16 -1 10 8 11 9 4 18 0 3 5 32 6 6 6 4 5 5 7 7 6 5 4 4 3 4
15 5 5 -1 18 -6 14 8 3 -6 3 8 4 7 7 9 14 10 12 8 9 20 9 10 12 8 8 9 5 5 6 9 4 27 24 2 9 3 4 6 6 6 6 8 5 5 4 3 3
-6 5 9 6 10 5 9 -6 0 13 8 10 7 4 5 7 15 10 9 12 8 8 4 -1 4 7 11 8 3 3 13 5 9 5 6 6 9 3 3 6 5 5 7 6 5 4 3 6 6
15 -1 9 -0 10 12 11 14 1 20 11 4 11 5 4 5 15 7 10 9 11 12 5 9 11 11 7 8 6 8 5 4 -0 11 4 5 7 2 4 6 5 5 4 4 6 4 4 5 6
-4 2 10 2 2 4 7 19 6 24 10 13 8 10 7 3 8 11 6 9 12 9 8 8 6 7 8 9 9 13 8 18 11 5 5 7 7 3 4 6 9 2 4 7 9 5 5 4 5
7 -3 -5 -3 6 -13 -3 12 -2 7 6 7 8 9 12 10 9 11 8 10 8 6 7 6 7 7 5 -2 5 17 16 6 3 12 17 4 9 3 3 7 7 7 8 4 4 9 6 3 6
7 13 -3 2 9 9 6 2 4 7 8 13 7 3 6 14 8 9 14 13 9 13 14 9 10 8 10 9 6 4 21 5 10 20 6 6 6 3 5 9 9 7 1 8 6 7 8 6 7
11 -3 2 -8 6 14 2 1 5 -7 -2 7 11 4 17 11 9 9 6 10 9 11 11 9 6 10 12 13 9 8 12 6 14 4 3 5 8 4 1 9 5 6 4 11 9 -4 7 6 7
10 18 10 8 20 -16 10 11 11 6 6 12 11 10 12 7 13 8 6 7 10 13 12 7 7 13 12 14 10 12 20 9 12 23 3 4 6 5 3 5 18 -2 5 -4 5 7 9 7 7
7 4 -6 -1 -4 -2 4 2 1 15 26 1 1 7 3 4 7 8 6 6 7 12 11 9 9 8 6 8 8 6 13 8 6 2 8 2 11 3 3 4 -8 4 7 4 23 6 8 5 9
7 12 8 6 -8 12 11 18 24 7 9 9 -11 12 5 14 5 13 7 7 8 9 10 12 10 11 7 4 7 9 7 4 9 10 8 7 2 10 6 4 6 10 8 6 1 7 5 5 6
8 13 7 2 6 -9 11 -3 4 10 -2 4 29 1 12 22 9 19 5 6 4 6 9 9 9 14 10 6 5 6 3 6 6 9 14 4 6 14 7 5 6 6 8 6 5 5 6 5 4
5 14 1 0 9 8 4 12 6 2 6 3 -2 7 10 9 15 11 12 6 5 4 5 10 7 10 15 9 9 8 6 5 5 5 6 8 12 10 7 7 5 6 7 5 4 4 3 7 3
16 2 -7 6 3 3 13 1 6 21 8 -4 -3 8 17 15 13 10 -2 10 9 5 4 6 10 12 7 13 10 10 4 6 8 5 7 5 7 8 8 6 7 9 7 5 4 4 8 6 4
0 11 5 9 0 6 7 2 14 2 14 -0 -2 7 4 3 17 16 14 6 6 8 5 7 6 10 9 8 9 8 10 11 6 8 8 4 5 6 7 9 7 11 8 7 4 3 3 5 4
18 27 10 9 -2 16 -0 6 5 8 -2 3 8 1 26 -9 25 29 21 16 -5 6 7 6 6 7 10 9 8 6 7 13 17 10 9 10 7 9 6 6 7 9 10 7 5 3 4 1 11
5 11 13 14 15 4 15 7 4 -3 7 21 3 -2 14 8 7 -21 12 -7 32 8 -10 7 13 6 5 8 13 7 11 7 11 9 8 6 10 8 8 5 5 7 10 7 4 3 3 5 12
-7 8 15 13 13 19 7 2 0 1 -17 29 1 26 7 31 7 14 15 8 8 18 15 6 9 13 7 5 5 9 11 8 10 6 9 13 10 9 12 7 1 7 7 6 5 3 2 2 5
6 6 23 8 9 12 9 4 1 -4 -0 -0 22 17 -6 17 22 -1 14 1 12 4 8 7 9 11 11 7 5 5 6 7 10 9 9 6 11 10 15 19 7 4 7 7 4 3 2 1 2
-2 -2 -0 28 1 6 12 12 16 7 1 18 21 30 -7 1 7 4 1 11 14 11 12 9 8 8 6 7 10 9 6 8 6 9 11 10 8 11 10 6 17 13 5 6 7 6 3 0 2
4 2 -1 6 32 6 1 10 3 2 -2 8 -8 -1 -7 24 28 2 -4 13 6 5 9 11 8 7 8 17 10 13 8 10 9 9 7 7 10 8 8 9 10 8 11 6 5 6 5 4 2
Height
5897 5897 5894 5895 5896 5892 5890 5889 5886 5886 5887 5886 5885 5884 5884 5884 5885 5888 5887 5888 5889 5891 5893 5894 5896 5898 5900 5902 5904 5905 5907 5908 5909 5909 5909 5909 5909 5909 5910 5910 5911 5911 5910 5909 5907 5906 5905 5903 5902
5895 5894 5893 5890 5892 5891 5889 5889 5887 5888 5888 5885 5883 5882 5882 5882 5884 5884 5886 5887 5889 5890 5892 5894 5896 5898 5899 5901 5903 5905 5906 5908 5909 5910 5910 5910 5911 5911 5912 5912 5913 5912 5911 5910 5909 5908 5906 5905 5904
5895 5893 5892 5888 5891 5890 5890 5888 5887 5888 5888 5887 5883 5881 5881 5882 5883 5882 5885 5886 5888 5889 5891 5893 5896 5898 5899 5901 5903 5905 5906 5908 5910 5911 5912 5913 5913 5913 5914 5914 5914 5913 5912 5911 5910 5909 5908 5906 5905
5894 5894 5893 5891 5890 5890 5890 5888 5888 5887 5886 5885 5883 5882 5881 5882 5883 5883 5884 5885 5887 5888 5890 5893 5895 5898 5900 5901 5903 5905 5906 5907 5909 5912 5913 5914 5915 5915 5916 5916 5916 5914 5913 5912 5912 5911 5910 5909 5908
5896 5895 5886 5893 5890 5891 5891 5890 5888 5888 5887 5885 5884 5882 5881 5881 5883 5884 5883 5885 5885 5887 5890 5892 5895 5897 5900 5901 5902 5904 5906 5907 5909 5911 5913 5914 5916 5917 5918 5917 5917 5916 5915 5914 5914 5913 5912 5911 5911
5895 5895 5892 5892 5890 5891 5888 5890 5888 5888 5888 5885 5885 5883 5882 5882 5882 5883 5883 5885 5885 5887 5889 5891 5894 5896 5898 5900 5902 5904 5907 5907 5909 5912 5913 5916 5918 5918 5920 5919 5919 5918 5917 5917 5916 5915 5915 5916 5914
5898 5896 5893 5892 5890 5891 5890 5891 5890 5889 5887 5886 5885 5884 5883 5883 5882 5882 5883 5884 5885 5886 5888 5890 5893 5895 5897 5900 5903 5905 5907 5908 5911 5912 5914 5916 5918 5920 5921 5921 5920 5920 5920 5919 5919 5918 5918 5918 5917
5899 5898 5894 5892 5889 5891 5890 5891 5891 5891 5889 5886 5887 5885 5884 5884 5883 5882 5883 5884 5885 5886 5886 5889 5892 5895 5897 5901 5903 5905 5907 5909 5912 5913 5915 5917 5919 5920 5921 5921 5921 5922 5921 5921 5921 5921 5921 5920 5919
5899 5896 5893 5892 5892 5889 5889 5889 5890 5891 5889 5888 5888 5886 5885 5884 5883 5883 5883 5884 5885 5885 5885 5887 5891 5894 5898 5901 5904 5906 5908 5910 5912 5914 5915 5916 5918 5920 5921 5921 5921 5923 5922 5922 5922 5923 5923 5922 5922
5896 5896 5885 5894 5890 5890 5889 5888 5890 5892 5892 5890 5887 5886 5885 5885 5885 5884 5883 5884 5885 5887 5888 5889 5891 5894 5897 5900 5904 5906 5908 5910 5912 5913 5914 5917 5919 5921 5922 5922 5923 5925 5925 5924 5923 5924 5924 5923 5923
5894 5896 5898 5894 5893 5891 5891 5893 5889 5890 5889 5890 5887 5888 5886 5884 5884 5885 5885 5885 5886 5887 5889 5890 5893 5895 5897 5900 5903 5904 5906 5909 5911 5911 5915 5917 5921 5923 5924 5925 5925 5926 5927 5928 5927 5926 5925 5925 5924
5893 5897 5895 5895 5894 5889 5891 5889 5886 5891 5891 5891 5890 5889 5887 5886 5885 5885 5887 5887 5887 5890 5891 5893 5895 5897 5898 5900 5902 5903 5904 5907 5910 5912 5915 5918 5922 5924 5924 5926 5926 5928 5930 5930 5930 5929 5927 5927 5926
5894 5895 5896 5897 5895 5895 5894 5888 5891 5893 5893 5893 5891 5888 5887 5885 5887 5886 5888 5889 5889 5891 5893 5894 5896 5897 5899 5900 5902 5903 5904 5908 5909 5911 5915 5918 5921 5924 5927 5928 5927 5929 5932 5932 5933 5932 5931 5930 5930
5892 5892 5897 5898 5895 5898 5897 5895 5892 5891 5891 5893 5893 5892 5889 5886 5888 5887 5888 5891 5891 5891 5892 5894 5896 5897 5899 5901 5902 5902 5903 5906 5908 5911 5914 5917 5922 5925 5928 5928 5930 5929 5932 5934 5934 5933 5933 5933 5932
5892 5894 5897 5897 5896 5894 5896 5897 5892 5891 5890 5891 5893 5893 5891 5890 5889 5889 5888 5890 5892 5893 5892 5893 5894 5896 5898 5900 5901 5901 5902 5905 5907 5911 5915 5917 5921 5924 5927 5928 5930 5932 5933 5934 5935 5935 5935 5935 5935
5894 5895 5896 5897 5896 5896 5898 5896 5895 5894 5892 5892 5891 5890 5889 5892 5892 5889 5890 5890 5891 5892 5893 5893 5894 5895 5896 5898 5900 5901 5902 5904 5906 5911 5916 5919 5922 5924 5927 5929 5930 5932 5932 5934 5935 5936 5936 5939 5938
5894 5893 5894 5893 5894 5896 5896 5895 5895 5894 5893 5891 5891 5891 5890 5891 5892 5890 5890 5891 5892 5893 5893 5893 5893 5896 5896 5897 5900 5902 5904 5903 5906 5910 5915 5919 5922 5924 5925 5928 5930 5933 5934 5934 5936 5936 5938 5939 5937
5892 5891 5892 5893 5894 5894 5895 5894 5894 5892 5891 5889 5891 5893 5889 5890 5890 5890 5891 5892 5892 5893 5893 5893 5893 5895 5896 5898 5901 5902 5904 5905 5907 5912 5915 5917 5921 5924 5926 5927 5929 5932 5935 5937 5938 5937 5938 5938 5938
5888 5889 5888 5888 5892 5893 5893 5893 5891 5890 5888 5887 5889 5889 5887 5887 5888 5891 5891 5892 5891 5892 5893 5893 5893 5895 5896 5898 5900 5902 5904 5906 5909 5912 5915 5919 5920 5923 5926 5927 5929 5931 5934 5934 5938 5938 5938 5938 5939
5885 5886 5884 5886 5888 5889 5889 5888 5891 5888 5885 5884 5887 5888 5884 5885 5886 5888 5889 5891 5891 5891 5892 5893 5894 5894 5896 5897 5899 5901 5904 5907 5910 5911 5915 5917 5921 5922 5925 5926 5927 5929 5932 5933 5935 5937 5937 5938 5939
5881 5882 5881 5883 5883 5887 5885 5883 5887 5886 5884 5885 5885 5884 5885 5885 5886 5888 5889 5891 5891 5892 5891 5892 5893 5895 5897 5898 5900 5903 5903 5905 5909 5911 5913 5916 5920 5923 5925 5926 5927 5928 5930 5932 5933 5935 5935 5938 5939
5877 5879 5879 5880 5880 5882 5881 5881 5881 5882 5883 5884 5884 5882 5883 5884 5885 5887 5889 5890 5890 5890 5889 5891 5894 5895 5896 5897 5899 5902 5904 5905 5906 5910 5914 5918 5919 5920 5922 5925 5926 5928 5929 5932 5933 5934 5934 5934 5936
5875 5876 5876 5874 5876 5877 5877 5875 5876 5877 5880 5881 5881 5881 5883 5882 5882 5885 5887 5887 5890 5890 5890 5890 5893 5895 5895 5896 5898 5901 5903 5904 5906 5909 5914 5916 5918 5919 5921 5923 5924 5925 5927 5929 5932 5933 5935 5934 5932
5870 5872 5873 5873 5872 5873 5876 5873 5873 5874 5876 5875 5877 5879 5880 5881 5883 5883 5885 5885 5888 5890 5890 5892 5892 5892 5894 5895 5897 5899 5901 5903 5905 5907 5908 5911 5913 5916 5919 5920 5921 5923 5926 5928 5930 5931 5932 5933 5932
5866 5868 5869 5868 5868 5871 5873 5870 5870 5873 5874 5875 5874 5874 5876 5877 5879 5883 5883 5883 5884 5886 5886 5890 5892 5892 5892 5894 5896 5898 5899 5900 5901 5902 5905 5908 5910 5912 5915 5918 5919 5921 5924 5924 5927 5929 5930 5932 5931
5862 5862 5863 5863 5864 5868 5869 5866 5870 5869 5870 5870 5872 5873 5872 5875 5880 5879 5880 5882 5880 5882 5885 5886 5889 5890 5890 5892 5894 5895 5897 5897 5899 5900 5902 5903 5906 5908 5911 5913 5915 5918 5920 5922 5924 5925 5927 5928 5928
5859 5858 5859 5858 5859 5860 5863 5863 5865 5867 5868 5866 5866 5871 5870 5871 5874 5876 5877 5878 5878 5880 5882 5884 5886 5889 5888 5889 5890 5892 5894 5896 5896 5898 5899 5899 5901 5903 5906 5908 5911 5914 5915 5917 5920 5921 5923 5924 5924
5851 5853 5852 5852 5854 5855 5857 5859 5862 5865 5864 5863 5863 5867 5867 5868 5868 5872 5875 5878 5880 5880 5878 5880 5882 5885 5886 5886 5888 5891 5892 5894 5896 5896 5897 5898 5898 5900 5902 5903 5906 5909 5911 5913 5915 5918 5919 5920 5921
5845 5847 5848 5849 5850 5850 5851 5853 5858 5859 5858 5861 5863 5862 5863 5864 5866 5870 5873 5873 5875 5876 5877 5877 5878 5880 5881 5884 5884 5887 5889 5891 5892 5894 5894 5895 5895 5896 5898 5899 5901 5903 5906 5907 5910 5912 5914 5915 5916
5839 5840 5842 5843 5846 5846 5847 5851 5852 5853 5855 5859 5861 5860 5860 5861 5863 5866 5868 5867 5869 5874 5874 5875 5875 5875 5878 5880 5880 5883 5885 5887 5887 5888 5888 5890 5889 5889 5889 5892 5894 5896 5899 5901 5903 5905 5907 5909 5910